EN

Hourly Weather Laguna Azul

Today, 5 August, Thursday

Time Temperature Precipitation Wind Pressure Humidity
00:00 +11°C° 0 mm 9 mps 734 mmHg 36%
01:00 +11°C° 0 mm 9 mps 733 mmHg 36%
02:00 +11°C° 0 mm 9 mps 732 mmHg 35%
03:00 +11°C° 0 mm 9 mps 732 mmHg 35%
04:00 +11°C° 0 mm 8 mps 731 mmHg 35%
05:00 +11°C° 0 mm 9 mps 730 mmHg 34%
06:00 +11°C° 0 mm 10 mps 730 mmHg 32%
07:00 +11°C° 0 mm 11 mps 730 mmHg 31%
08:00 +12°C° 0 mm 12 mps 730 mmHg 32%
09:00 +13°C° 0 mm 14 mps 730 mmHg 33%
10:00 +14°C° 0 mm 15 mps 731 mmHg 34%
11:00 +14°C° 0 mm 15 mps 732 mmHg 34%
12:00 +14°C° 0 mm 14 mps 732 mmHg 33%
13:00 +14°C° 0 mm 14 mps 733 mmHg 33%
14:00 +13°C° 0 mm 13 mps 734 mmHg 34%
15:00 +12°C° 0 mm 11 mps 735 mmHg 35%
16:00 +11°C° 0 mm 10 mps 735 mmHg 36%
17:00 +9°C° 0 mm 10 mps 736 mmHg 36%
18:00 +10°C° 0 mm 9 mps 736 mmHg 36%
19:00 +8°C° 0 mm 9 mps 736 mmHg 37%
20:00 +8°C° 0 mm 10 mps 736 mmHg 39%
21:00 +7°C° 0 mm 11 mps 737 mmHg 42%
22:00 +7°C° 0 mm 12 mps 737 mmHg 44%
23:00 +6°C° 0 mm 10 mps 738 mmHg 46%

Tomorrow, 6 August, Friday

Time Temperature Precipitation Wind Pressure Humidity
00:00 +6°C° 0 mm 9 mps 738 mmHg 48%
01:00 +5°C° 0 mm 7 mps 739 mmHg 50%
02:00 +4°C° 0 mm 6 mps 739 mmHg 50%
03:00 +3°C° 0 mm 5 mps 739 mmHg 50%
04:00 +4°C° 0 mm 4 mps 739 mmHg 50%
05:00 +2°C° 0 mm 5 mps 739 mmHg 53%
06:00 +2°C° 0 mm 6 mps 739 mmHg 56%
07:00 +2°C° 0 mm 7 mps 739 mmHg 59%
08:00 +4°C° 0 mm 8 mps 739 mmHg 50%
09:00 +5°C° 0 mm 8 mps 739 mmHg 42%
10:00 +6°C° 0 mm 9 mps 738 mmHg 34%
11:00 +7°C° 0 mm 10 mps 738 mmHg 31%
12:00 +7°C° 0 mm 11 mps 737 mmHg 28%
13:00 +8°C° 0 mm 12 mps 737 mmHg 25%
14:00 +5°C° 0 mm 12 mps 737 mmHg 31%
15:00 +4°C° 0 mm 13 mps 737 mmHg 37%
16:00 +1°C° 0 mm 14 mps 738 mmHg 42%
17:00 +1°C° 0 mm 13 mps 738 mmHg 41%
18:00 0°C° 0 mm 12 mps 738 mmHg 40%
19:00 +1°C° 0 mm 11 mps 739 mmHg 38%
20:00 +1°C° 0 mm 11 mps 738 mmHg 37%
21:00 0°C° 0 mm 12 mps 737 mmHg 35%
22:00 0°C° 0 mm 12 mps 736 mmHg 34%
23:00 0°C° 0 mm 13 mps 736 mmHg 35%

Day after tomorrow, 7 August, Saturday

Time Temperature Precipitation Wind Pressure Humidity
00:00 0°C° 0 mm 14 mps 736 mmHg 37%
01:00 +1°C° 0 mm 15 mps 736 mmHg 38%
02:00 0°C° 0 mm 12 mps 737 mmHg 49%
03:00 0°C° 0 mm 9 mps 738 mmHg 60%
04:00 -1°C° 0 mm 6 mps 739 mmHg 70%
05:00 0°C° 0 mm 5 mps 740 mmHg 71%
06:00 -1°C° 0 mm 4 mps 740 mmHg 71%
07:00 0°C° 0 mm 3 mps 741 mmHg 72%
08:00 +1°C° 0 mm 6 mps 741 mmHg 60%
09:00 +2°C° 0 mm 9 mps 742 mmHg 48%
10:00 +3°C° 0 mm 11 mps 742 mmHg 37%
11:00 +4°C° 0 mm 12 mps 742 mmHg 34%
12:00 +5°C° 0 mm 12 mps 742 mmHg 32%
13:00 +5°C° 0 mm 13 mps 742 mmHg 29%
14:00 +5°C° 0 mm 12 mps 743 mmHg 31%
15:00 +4°C° 0 mm 11 mps 744 mmHg 32%
16:00 +5°C° 0 mm 10 mps 744 mmHg 33%
17:00 +3°C° 0 mm 9 mps 745 mmHg 40%
18:00 +3°C° 0 mm 7 mps 747 mmHg 46%
19:00 +2°C° 0 mm 6 mps 748 mmHg 53%
20:00 +1°C° 0 mm 5 mps 749 mmHg 56%
21:00 0°C° 0 mm 4 mps 750 mmHg 60%
22:00 +1°C° 0 mm 3 mps 751 mmHg 64%
23:00 0°C° 0 mm 3 mps 752 mmHg 65%

8 August, Sunday

Time Temperature Precipitation Wind Pressure Humidity
00:00 0°C° 0 mm 3 mps 752 mmHg 67%
01:00 0°C° 0 mm 3 mps 753 mmHg 68%
02:00 0°C° 0 mm 3 mps 753 mmHg 66%
03:00 -1°C° 0 mm 4 mps 753 mmHg 64%
04:00 -1°C° 0 mm 4 mps 753 mmHg 63%
05:00 -1°C° 0 mm 4 mps 754 mmHg 62%
06:00 -1°C° 0 mm 4 mps 754 mmHg 62%
07:00 -1°C° 0 mm 4 mps 754 mmHg 62%
08:00 +1°C° 0 mm 4 mps 754 mmHg 56%
09:00 +4°C° 0 mm 4 mps 754 mmHg 50%
10:00 +6°C° 0 mm 4 mps 754 mmHg 44%
11:00 +7°C° 0 mm 5 mps 754 mmHg 41%
12:00 +8°C° 0 mm 5 mps 753 mmHg 38%
13:00 +9°C° 0 mm 6 mps 753 mmHg 34%
14:00 +8°C° 0 mm 5 mps 753 mmHg 37%
15:00 +8°C° 0 mm 4 mps 752 mmHg 39%
16:00 +7°C° 0 mm 4 mps 752 mmHg 42%
17:00 +6°C° 0 mm 4 mps 752 mmHg 45%
18:00 +5°C° 0 mm 4 mps 752 mmHg 48%
19:00 +4°C° 0 mm 4 mps 752 mmHg 51%
20:00 +4°C° 0 mm 3 mps 752 mmHg 53%
21:00 +4°C° 0 mm 3 mps 752 mmHg 54%
22:00 +3°C° 0 mm 3 mps 752 mmHg 56%
23:00 +3°C° 0 mm 3 mps 752 mmHg 56%

9 August, Monday

Time Temperature Precipitation Wind Pressure Humidity
00:00 +3°C° 0 mm 3 mps 752 mmHg 57%
01:00 +2°C° 0 mm 3 mps 752 mmHg 57%
02:00 +2°C° 0 mm 3 mps 751 mmHg 58%
03:00 +2°C° 0 mm 3 mps 751 mmHg 59%
04:00 +1°C° 0 mm 3 mps 751 mmHg 60%
05:00 +1°C° 0 mm 3 mps 751 mmHg 60%
06:00 +1°C° 0 mm 3 mps 751 mmHg 61%
07:00 +1°C° 0 mm 3 mps 751 mmHg 62%
08:00 +2°C° 0 mm 3 mps 751 mmHg 56%
09:00 +4°C° 0 mm 3 mps 751 mmHg 50%
10:00 +5°C° 0 mm 4 mps 750 mmHg 44%
11:00 +7°C° 0 mm 3 mps 750 mmHg 41%
12:00 +8°C° 0 mm 3 mps 749 mmHg 37%
13:00 +10°C° 0 mm 3 mps 749 mmHg 33%
14:00 +9°C° 0 mm 3 mps 749 mmHg 36%
15:00 +8°C° 0 mm 2 mps 748 mmHg 38%
16:00 +8°C° 0 mm 2 mps 748 mmHg 41%
17:00 +7°C° 0 mm 2 mps 748 mmHg 42%
18:00 +5°C° 0 mm 3 mps 747 mmHg 43%
19:00 +4°C° 0 mm 3 mps 747 mmHg 44%
20:00 +4°C° 0 mm 4 mps 746 mmHg 43%
21:00 +4°C° 0 mm 4 mps 746 mmHg 42%
22:00 +3°C° 0 mm 5 mps 745 mmHg 41%
23:00 +3°C° 0 mm 6 mps 745 mmHg 41%

10 August, Tuesday

Time Temperature Precipitation Wind Pressure Humidity
00:00 +3°C° 0 mm 6 mps 744 mmHg 40%
01:00 +3°C° 0 mm 7 mps 744 mmHg 40%
02:00 +4°C° 0 mm 7 mps 744 mmHg 42%
03:00 +4°C° 0 mm 7 mps 743 mmHg 44%
04:00 +4°C° 0 mm 7 mps 743 mmHg 46%
05:00 +4°C° 0 mm 8 mps 744 mmHg 46%
06:00 +3°C° 0 mm 10 mps 744 mmHg 45%
07:00 +3°C° 0 mm 11 mps 745 mmHg 44%
08:00 +3°C° 0 mm 12 mps 747 mmHg 43%
09:00 +1°C° 0 mm 13 mps 748 mmHg 42%
10:00 0°C° 0 mm 14 mps 750 mmHg 41%
11:00 0°C° 0 mm 13 mps 751 mmHg 39%
12:00 0°C° 0 mm 12 mps 751 mmHg 37%
13:00 0°C° 0 mm 12 mps 752 mmHg 35%
14:00 0°C° 0 mm 12 mps 753 mmHg 37%
15:00 -1°C° 0 mm 12 mps 753 mmHg 40%
16:00 -1°C° 0 mm 12 mps 754 mmHg 43%
17:00 -1°C° 0 mm 11 mps 755 mmHg 43%
18:00 -2°C° 0 mm 10 mps 755 mmHg 44%
19:00 -2°C° 0 mm 10 mps 756 mmHg 44%
20:00 -3°C° 0 mm 9 mps 756 mmHg 47%
21:00 -2°C° 0 mm 8 mps 756 mmHg 49%
22:00 -3°C° 0 mm 7 mps 757 mmHg 52%
23:00 -3°C° 0 mm 6 mps 757 mmHg 56%
Show more